Regional Weather Roundup
Issued by NWS

Home | Current Version | Previous Version | Graphics & Text | Print | Product List | Glossary On
Versions: 1 2 3 4 5 6 7 8 9 10 11 12 13 14 15 16 17 18 19 20 21 22 23 24 25 26 27 28 29 30 31 32 33 34 35 36 37 38 39 40 41 42 43 44 45 46 47 48 49 50
000
ASUS43 KOAX 132202
RWRNE

WEATHER ROUNDUP FOR NEBRASKA
NATIONAL WEATHER SERVICE OMAHA NE
500 PM CDT SUN JUL 13 2014

NOTES: SATELLITE DATA IS BEING USED TO AUGMENT CLOUD COVER ABOVE
       12000 FEET.
       "FAIR" INDICATES FEW OR NO CLOUDS BELOW 12,000 FEET WITH NO
       SIGNIFICANT WEATHER AND/OR OBSTRUCTIONS TO VISIBILITY.

  * THESE STATIONS DO NOT REPORT WEATHER SUCH AS RAIN...SNOW OR FOG.

NEZ001>004-019>022-054>056-132300-
NEBRASKA PANHANDLE

CITY           SKY/WX    TMP DP  RH WIND       PRES   REMARKS
SCOTTSBLUFF    PTSUNNY   87  57  35 NW7       30.16F
ALLIANCE       PTSUNNY   83  47  28 CALM      30.15F
CHADRON        MOSUNNY   88  52  29 N7        30.10F
KIMBALL        CLOUDY    72  59  62 S10       30.23F
SIDNEY         PTSUNNY   73  57  57 SW9       30.21S
$$

NEZ057>060-069>072-079>082-132300-
SOUTHWEST NEBRASKA

CITY           SKY/WX    TMP DP  RH WIND       PRES   REMARKS
NORTH PLATTE   SUNNY     89  51  27 W5        30.09F
IMPERIAL       PTSUNNY   80  59  48 SW8       30.13F
LEXINGTON      SUNNY     88  57  34 NW6       30.08F
MCCOOK         PTSUNNY   84  60  44 S5        30.10F
OGALLALA       MOSUNNY   86  49  27 NE8       30.13S
$$

NEZ005>010-023>029-035>040-094-132300-
NORTH CENTRAL NEBRASKA

CITY           SKY/WX    TMP DP  RH WIND       PRES   REMARKS
VALENTINE      SUNNY     85  52  32 NW6       30.09F
AINSWORTH      SUNNY     83  50  31 N10       30.09F
BROKEN BOW     SUNNY     87  62  43 N13       30.08F
O`NEILL        MOSUNNY   85  51  30 W6        30.05F
ORD            SUNNY     84  63  49 N10       30.05F
THEDFORD       SUNNY     87  54  32 N5        30.11F
$$

NEZ041-046>049-061>064-073>077-083>087-132300-
SOUTH CENTRAL NEBRASKA

CITY           SKY/WX    TMP DP  RH WIND       PRES   REMARKS
GRAND ISLAND   MOSUNNY   88  62  41 NW10      30.04F
AURORA         SUNNY     86  64  47 W6        30.04F
HASTINGS       SUNNY     87  58  37 NW7       30.06F
HEBRON         SUNNY     88  64  44 NW6       30.04F
HOLDREGE       SUNNY     85  57  38 W5        30.09S
KEARNEY *      SUNNY     90  57  33 W9        30.07F
YORK           MOSUNNY   86  64  48 NW7       30.03F
$$

NEZ011>018-030>034-042>045-132300-
NORTHEAST NEBRASKA

CITY           SKY/WX    TMP DP  RH WIND       PRES   REMARKS
NORFOLK        MOSUNNY   84  66  54 N8        30.01F
ALBION         MOSUNNY   84  60  43 N10       30.04S
BLAIR          PTSUNNY   82  56  40 N8        30.00S
FREMONT        PTSUNNY   85  66  52 NW8       30.01F
TEKAMAH        PTSUNNY   85  68  56 N10       29.99F
WAYNE          MOSUNNY   83  64  51 NW6       30.02S
$$

NEZ050>053-065>068-078-088>093-132300-
SOUTHEAST NEBRASKA

CITY           SKY/WX    TMP DP  RH WIND       PRES   REMARKS
LINCOLN        PTSUNNY   90  62  39 NW8       30.01F HX  90
OMAHA EPPLEY   PTSUNNY   86  63  45 W10G20    29.98F
BEATRICE       MOSUNNY   85  65  51 W6        30.01F
FALLS CITY     SUNNY     86  69  56 NW7       29.99F HX  90
NEBRASKA CITY  MOSUNNY   85  65  51 SW3       29.99F
PLATTSMOUTH    MOSUNNY   88  60  38 W8        29.99F
$$

NEZ044-045-051>053-067-132300-
OMAHA AREA

CITY           SKY/WX    TMP DP  RH WIND       PRES   REMARKS
OMAHA EPPLEY   PTSUNNY   86  63  45 W10G20    29.98F
BLAIR          PTSUNNY   82  56  40 N8        30.00S
FREMONT        PTSUNNY   85  66  52 NW8       30.01F
MILLARD        MOSUNNY   85  68  55 W8        29.98F
OFFUTT AFB     MOSUNNY   85  66  52 NW9       29.97F
PLATTSMOUTH    MOSUNNY   88  60  38 W8        29.99F
WAHOO          MOCLDY    84  67  57 CALM      30.00F
$$



USA.gov is the U.S. government's official web portal to all federal, state and local government web resources and services.